Погода в Джералдтоне

Австралия     28°43′58″S   114°40′20″E
темп.,
°C
ветер,
м/с
пор.,
м/с
влажн.,
%
обл.,
%
осадки,
мм/ч
давл.,
гПа
погр.,
м
13 мая, чт
чт1323:00+19ююв25865 0.0 1019133
02:00+20в4116594 0.0 1018341
05:00+19в7146487 0.0 1018405
08:00+18в8156254 0.0 1020422
11:00+24всв9114282 0.0 1019649
14:00+27всв783399 0.0 10161084
17:00+26в473696 0.0 1017213
20:00+23вюв4114491 0.0 1018254
14 мая, пт
пт1423:00+22в614445 0.0 1018412
02:00+22всв816455 0.0 1017419
05:00+21всв7164619 0.0 1017382
08:00+21св8164599 0.0 1018420
11:00+27св9113097 0.0 1018672
14:00+30ссв5624100 0.0 10161353
17:00+28всв362789 0.0 1016116
20:00+25всв4113414 0.0 1018225
15 мая, сб
сб1523:00+24всв615385 0.0 1018413
02:00+23всв816405 0.0 1018454
05:00+21св816428 0.0 1018424
08:00+21св816413 0.0 1019455
11:00+27св9113033 0.0 1019757
14:00+29св672549 0.0 10171310
17:00+27св4629100 0.0 1018188
20:00+23всв363658 0.0 1019111
16 мая, вс
вс1623:00+21всв41139100 0.0 1019230
02:00+21всв61436100 0.0 1018391
05:00+21св61334100 0.0 1018438
08:00+20св6143566 0.0 1019429
11:00+26св81025100 0.0 1019793
14:00+28ссв672271 0.0 10161469
17:00+26ссв2228100 0.0 101647
20:00+23св2239100 0.0 101730
17 мая, пн
пн1723:00+23св3833100 0.0 1017178
02:00+20св2437100 0.0 101680
05:00+21св41034100 0.0 1016216
08:00+21св41134100 0.0 1017268
11:00+28с562384 0.0 10161012
14:00+29сз3423100 0.0 10142232
17:00+24з354190 0.0 1015204
20:00+20ююв11635 0.0 101711